Nassau, Bahamas

7:43 PM EDT on June 26, 2017 (GMT -0400)
Nassau International

Weather History for MYNN - April, 2014

Change the Weather History Date:

Monday, April 7, 2014

  Actual Average Record
Temperature  
Mean Temperature 80 °F -  
Max Temperature 86 °F 83 °F 86 °F (2003)
Min Temperature 74 °F 67 °F 62 °F (2004)
Cooling Degree Days 15    
Growing Degree Days 30 (Base 50)    
Moisture  
Dew Point 72 °F    
Average Humidity 77    
Maximum Humidity 84    
Minimum Humidity 64    
Precipitation  
Precipitation 0.00 in 0.09 in - ()
Sea Level Pressure  
Sea Level Pressure 30.00 in    
Wind  
Wind Speed 7 mph ()    
Max Wind Speed 12 mph    
Max Gust Speed 25 mph    
Visibility 6.9 miles    
Events      
Averages and records for this station are not official NWS values.
T = Trace of Precipitation, MM = Missing Value Source: Averaged Metar Reports

Daily Weather History Graph

Daily Weather History Graph

Search for Another Location

Airport or City:

Trip Planner

Search our weather history database for the weather conditions in past years. The results will help you decide how hot, cold, wet, or windy it might be!

Date:

Astronomy

Apr. 07, 2014 Rise Set
Actual Time 6:55 AM EDT 7:28 PM EDT
Civil Twilight 6:32 AM EDT 7:52 PM EDT
Nautical Twilight 6:05 AM EDT 8:19 PM EDT
Astronomical Twilight 5:37 AM EDT 8:46 PM EDT
Moon 1:05 PM EDT (4/7) 1:48 AM EDT (4/7)
Length of Visible Light 13h 19m
Length of Day
12h 33m
First Quarter, 53% of the Moon is Illuminated
Apr 7
First Quarter
Apr 15
Full
Apr 22
Last Quarter
Apr 29
New
May 6
First Quarter

Hourly Weather History & Observations

Time (EDT) Temp. Heat Index Dew Point Humidity Pressure Visibility Wind Dir Wind Speed Gust Speed Precip Events Conditions
12:00 AM 75.2 °F - 68.0 °F 78% 30.03 in - East 3.5 mph - N/A   Clear
1:00 AM 75.2 °F - 69.8 °F 83% 30.04 in - East 5.8 mph - N/A   Clear
2:00 AM 76 °F - 68 °F 70% 30.02 in 9 mi East 4.6 mph - -   Clear
2:00 AM 75.2 °F - 68.0 °F 78% 30.02 in - East 4.6 mph - N/A   Clear
3:00 AM 75.2 °F - 69.8 °F 83% 30.00 in - East 4.6 mph - N/A   Clear
4:00 AM 75.2 °F - 69.8 °F 83% 29.99 in - Variable 1.2 mph - N/A   Mostly Cloudy
5:00 AM 76 °F - 69 °F 72% 29.99 in 9 mi Calm Calm - -   Mostly Cloudy
5:00 AM 75.2 °F - 68.0 °F 78% 29.98 in - SE 5.8 mph - N/A   Mostly Cloudy
6:00 AM 75.2 °F - 69.8 °F 83% 29.98 in 6.2 mi SE 6.9 mph - N/A   Mostly Cloudy
7:00 AM 75.2 °F - 69.8 °F 83% 29.99 in 6.2 mi SSE 6.9 mph - N/A   Scattered Clouds
8:00 AM 78 °F - 72 °F 78% 30.01 in 8 mi SSE 11.5 mph - -   Partly Cloudy
8:00 AM 77.0 °F - 71.6 °F 83% 30.01 in 6.2 mi SSE 11.5 mph - N/A   Mostly Cloudy
9:00 AM 78.8 °F - 69.8 °F 74% 30.02 in 6.2 mi SSE 11.5 mph 24.2 mph N/A   Scattered Clouds
10:00 AM 80.6 °F 83.9 °F 69.8 °F 70% 30.03 in 6.2 mi SSE 11.5 mph - N/A   Scattered Clouds
11:00 AM 82 °F - 74 °F 69% 30.04 in 8 mi SSE 11.5 mph - -   Partly Cloudy
11:00 AM 82.4 °F 88.2 °F 73.4 °F 74% 30.04 in 6.2 mi SSE 11.5 mph - N/A   Scattered Clouds
1:00 PM 82.4 °F 87.2 °F 71.6 °F 70% 30.01 in 6.2 mi SSE 11.5 mph 25.3 mph N/A   Scattered Clouds
2:00 PM 85 °F - 74 °F 64% 30.00 in 8 mi SSE 11.5 mph - -   Partly Cloudy
2:00 PM 86.0 °F 95.1 °F 75.2 °F 70% 30.00 in 6.2 mi SSE 11.5 mph 23.0 mph N/A   Scattered Clouds
5:00 PM 84 °F - 75 °F 67% 29.95 in 8 mi SSE 11.5 mph - -   Partly Cloudy
6:00 PM 80.6 °F 84.6 °F 71.6 °F 74% 29.95 in 6.2 mi SSE 11.5 mph - N/A   Scattered Clouds
7:00 PM 80.6 °F 84.6 °F 71.6 °F 74% 29.95 in 6.2 mi SSE 11.5 mph 23.0 mph N/A   Scattered Clouds
8:00 PM 80 °F - 75 °F 81% 29.96 in 8 mi SSE 9.2 mph - -   Partly Cloudy
8:00 PM 80.6 °F 86.2 °F 75.2 °F 84% 29.96 in 6.2 mi SSE 9.2 mph 20.7 mph N/A   Scattered Clouds
9:00 PM 78.8 °F - 73.4 °F 83% 29.98 in 6.2 mi SSE 6.9 mph - N/A   Scattered Clouds
10:00 PM 78.8 °F - 73.4 °F 83% 30.01 in 6.2 mi SSE 6.9 mph - N/A   Scattered Clouds
11:00 PM 79 °F - 74 °F 81% 30.01 in 8 mi SE 6.9 mph - -   Partly Cloudy
11:00 PM 78.8 °F - 73.4 °F 83% 30.01 in 6.2 mi SE 6.9 mph - N/A   Scattered Clouds